CAPE
12 9 7 6 4 4 3 2 1 1 0 0 0 0 0 0 0 0 0 0 0 0 0 0 0 0 0 0 0 0 0 0 0 0 0 0 0 0 0 0 0 0 0 0 0 0 0
10 9 7 5 4 3 3 2 2 1 0 0 0 0 0 0 0 0 0 0 0 0 0 0 0 0 0 0 0 0 0 0 0 0 0 0 0 0 0 0 0 0 0 0 0 0 0
9 6 4 3 4 3 4 3 2 2 1 0 0 0 0 0 0 0 0 0 0 0 0 0 0 0 0 0 0 0 0 0 0 0 0 0 0 0 0 0 0 0 0 0 0 0 0
9 6 6 4 3 3 4 3 2 2 0 0 0 0 0 0 0 0 0 0 0 0 0 0 0 0 0 0 0 0 0 0 0 0 0 0 0 0 0 0 0 0 0 0 0 0 0
6 5 4 2 2 5 7 4 2 1 0 0 0 0 0 0 0 0 0 0 0 0 0 0 0 0 0 0 0 0 0 0 0 0 0 0 0 0 0 0 0 0 0 0 0 0 0
9 7 5 2 1 2 2 2 1 0 0 0 0 0 0 0 0 0 0 0 0 0 0 0 0 0 0 0 0 0 0 0 0 0 0 0 0 0 0 0 0 0 0 0 0 0 0
7 7 4 2 2 2 2 2 1 0 0 0 0 0 0 0 0 0 0 0 0 0 0 0 0 0 0 0 0 0 0 0 0 0 0 0 0 0 0 0 0 0 0 0 0 0 0
8 7 5 2 1 2 2 1 0 0 0 0 0 0 0 0 0 0 0 0 0 0 0 0 0 0 0 0 0 0 0 0 0 0 0 0 0 0 0 0 0 0 0 0 0 0 0
8 6 5 2 1 1 2 2 1 0 0 0 0 0 0 0 0 0 0 0 0 0 0 0 0 0 0 0 0 0 0 0 0 0 0 0 0 0 0 0 0 0 0 0 0 0 0
8 6 4 2 1 1 2 2 2 0 0 0 0 0 0 0 0 0 0 0 0 0 0 0 0 0 0 0 0 0 0 0 0 0 0 0 0 0 0 0 0 0 0 0 0 0 0
8 5 3 1 1 1 4 2 2 0 0 0 0 0 0 0 0 0 0 0 0 0 0 0 0 0 0 0 0 0 0 0 0 0 0 0 0 0 0 0 0 0 0 0 0 0 0
8 5 3 1 2 6 5 5 4 0 0 0 0 0 0 0 0 0 0 0 0 0 0 0 0 0 0 0 0 0 0 0 0 0 0 0 0 0 0 0 0 0 0 0 0 0 0
7 4 2 0 3 3 4 4 2 1 0 0 0 0 0 0 0 0 0 0 0 0 0 0 0 0 0 0 0 0 0 0 0 0 0 0 0 0 0 0 0 0 0 0 0 0 1
5 4 2 0 1 5 3 2 1 0 0 0 0 0 0 0 0 0 0 0 0 0 0 0 0 0 0 0 0 0 0 0 0 0 0 0 0 0 0 0 6 0 2 11 16 6 0
6 4 2 1 2 4 2 1 0 0 0 0 0 0 0 0 0 0 0 0 0 0 0 0 0 0 0 0 0 0 0 0 0 0 0 0 0 0 0 1 43 21 0 0 5 2 11
6 5 2 4 4 3 1 0 0 0 0 0 0 0 0 0 0 0 0 0 0 0 0 0 0 0 0 0 0 0 0 0 0 0 0 0 0 0 0 3 0 4 10 11 28 19 4
6 5 2 4 3 3 0 0 0 0 0 0 0 0 0 0 0 0 0 0 0 0 0 0 0 0 0 0 0 0 0 0 0 0 0 0 0 0 0 1 11 11 8 17 24 1 7
5 5 6 5 4 2 0 0 0 0 0 0 0 0 0 0 0 0 0 0 0 0 0 0 0 0 0 0 0 0 0 0 0 0 0 0 10 14 0 0 4 42 0 0 0 0 0
5 4 5 4 4 2 0 0 0 0 0 0 0 0 0 0 0 0 0 0 0 0 0 0 0 0 0 0 0 0 0 0 0 0 0 0 0 0 0 0 0 17 0 0 4 0 0
4 4 3 1 4 3 0 0 0 0 0 0 0 0 0 0 0 0 0 0 0 0 0 0 0 0 0 0 0 0 0 0 0 0 0 0 0 0 0 0 10 5 0 0 0 0 0
1 3 5 4 4 3 0 0 0 0 0 0 0 0 0 0 0 0 0 0 0 0 0 0 0 0 0 0 0 0 0 0 0 0 0 0 0 0 0 0 0 3 0 0 0 0 0
0 4 9 6 5 3 0 0 0 0 0 0 0 0 0 0 0 0 0 0 0 0 0 0 0 0 0 0 0 0 0 0 0 0 0 0 0 0 0 0 0 0 3 3 0 0 0
0 0 6 6 2 1 0 0 0 0 0 0 0 0 0 0 0 0 0 0 0 0 0 0 0 0 0 0 0 0 0 0 0 0 0 0 0 0 16 0 0 0 0 0 6 0 0
0 0 1 4 2 1 0 0 0 0 0 0 0 0 0 0 0 0 0 0 0 0 0 0 0 0 0 0 0 0 0 0 0 0 0 0 0 0 14 4 0 0 0 0 0 0 5
0 0 0 3 2 1 0 0 0 0 0 0 0 0 0 0 0 0 0 0 0 0 0 0 0 0 0 0 0 0 0 0 0 0 0 0 0 0 0 0 0 0 0 0 2 0 3
0 0 0 1 1 1 0 0 0 0 0 0 0 0 1 0 0 0 0 0 0 0 0 0 0 0 0 0 0 0 0 0 0 0 0 0 0 0 1 0 0 0 0 0 0 2 2
0 0 0 0 0 1 1 0 0 0 0 0 0 0 0 1 0 0 0 0 0 0 0 0 0 0 0 0 0 0 0 0 0 0 0 0 0 0 0 3 0 0 0 0 0 0 0
0 0 0 0 0 0 1 1 0 0 0 0 0 0 0 0 0 0 0 0 0 0 0 0 0 0 0 0 0 0 0 0 0 0 0 0 0 0 0 0 0 0 0 0 0 0 0
0 0 0 0 0 0 0 2 0 0 0 0 0 0 0 0 0 0 0 0 0 0 0 0 0 0 0 0 0 0 0 0 0 0 0 0 0 0 0 0 0 0 0 0 0 0 0
CIN
-0 -0 -0 -0 -0 -0 -0 -0 -0 -0 -0 -0 -0 -0 -0 -0 -0 -0 -0 -0 -0 -0 -0 -0 -0 -0 -0 -0 -0 -0 -0 -0 -0 -0 -0 -0 -0 -0 -0 -0 -0 -0 -0 -0 -0 -0 -0
-0 -0 -0 -0 -0 -0 -0 -0 -0 -0 -0 -0 -0 -0 -0 -0 -0 -0 -0 -0 -0 -0 -0 -0 -0 -0 -0 -0 -0 -0 -0 -0 -0 -0 -0 -0 -0 -0 -0 -0 -0 -0 -0 -0 -0 -0 -0
-0 -0 -0 -0 -0 -0 -0 -0 -0 -0 -0 -0 -0 -0 -0 -0 -0 -0 -0 -0 -0 -0 -0 -0 -0 -0 -0 -0 -0 -0 -0 -0 -0 -0 -0 -0 -0 -0 -0 -0 -0 -0 -0 -0 -0 -0 -0
-0 -0 -0 -0 -0 -0 -0 -0 -0 -0 -0 -0 -0 -0 -0 -0 -0 -0 -0 -0 -0 -0 -0 -0 -0 -0 -0 -0 -0 -0 -0 -0 -0 -0 -0 -0 -0 -0 -0 -0 -0 -0 -0 -0 -0 -0 -0
-0 -0 -0 -0 -0 -0 -0 -0 -0 -0 -0 -0 -0 -0 -0 -0 -0 -0 -0 -0 -0 -0 -0 -0 -0 -0 -0 -0 -0 -0 -0 -0 -0 -0 -0 -0 -0 -0 -0 -0 -0 -0 -0 -0 -0 -0 -0
-0 -0 -0 -0 -0 -0 -0 -0 -0 -0 -0 -0 -0 -0 -0 -0 -0 -0 -0 -0 -0 -0 -0 -0 -0 -0 -0 -0 -0 -0 -0 -0 -0 -0 -0 -0 -0 -0 -0 -0 -0 -0 -0 -0 -0 -0 -0
-0 -0 -0 -0 -0 -0 -0 -0 -0 -0 -0 -0 -0 -0 -0 -0 -0 -0 -0 -0 -0 -0 -0 -0 -0 -0 -0 -0 -0 -0 -0 -0 -0 -0 -0 -0 -0 -0 -0 -0 -0 -0 -0 -0 -0 -0 -0
-0 -0 -0 -0 -0 -0 -0 -0 -0 -0 -0 -0 -0 -0 -0 -0 -0 -0 -0 -0 -0 -0 -0 -0 -0 -0 -0 -0 -0 -0 -0 -0 -0 -0 -0 -0 -0 -0 -0 -0 -0 -0 -0 -0 -0 -0 -0
-0 -0 -0 -0 -0 -0 -0 -0 -0 -0 -0 -0 -0 -0 -0 -0 -0 -0 -0 -0 -0 -0 -0 -0 -0 -0 -0 -0 -0 -0 -0 -0 -0 -0 -0 -0 -0 -0 -0 -0 -0 -0 -0 -0 -0 -0 -0
-0 -0 -0 -0 -0 -0 -0 -0 -0 -0 -0 -0 -0 -0 -0 -0 -0 -0 -0 -0 -0 -0 -0 -0 -0 -0 -0 -0 -0 -0 -0 -0 -0 -0 -0 -0 -0 -0 -0 -0 -0 -0 -0 -0 -0 -0 -0
-0 -0 -0 -0 -0 -0 -0 -0 -0 -0 -0 -0 -0 -0 -0 -0 -0 -0 -0 -0 -0 -0 -0 -0 -0 -0 -0 -0 -0 -0 -0 -0 -0 -0 -0 -0 -0 -0 -0 -0 -0 -0 -0 -0 -0 -0 -0
-0 -0 -0 -0 -0 -0 -0 -0 -0 -0 -0 -0 -0 -0 -0 -0 -0 -0 -0 -0 -0 -0 -0 -0 -0 -0 -0 -0 -0 -0 -0 -0 -0 -0 -0 -0 -0 -0 -0 -0 -0 -0 -0 -0 -0 -0 -0
-0 -0 -0 -0 -0 -0 -0 -0 -0 -0 -0 -0 -0 -0 -0 -0 -0 -0 -0 -0 -0 -0 -0 -0 -0 -0 -0 -0 -0 -0 -0 -0 -0 -0 -0 -0 -0 -0 -0 -0 -0 -0 -0 -0 -0 -0 -1
-0 -0 -0 -0 -0 -0 -0 -0 -0 -0 -0 -0 -0 -0 -0 -0 -0 -0 -0 -0 -0 -0 -0 -0 -0 -0 -0 -0 -0 -0 -0 -0 -0 -0 -0 -0 -0 -0 -0 -0 -0 -0 -20 -3 -3 -2 -0
-0 -0 -0 -0 -0 -0 -0 -0 -0 -0 -0 -0 -0 -0 -0 -0 -0 -0 -0 -0 -0 -0 -0 -0 -0 -0 -0 -0 -0 -0 -0 -0 -0 -0 -0 -0 -0 -0 -0 -41 -3 -5 -53 -0 -17 -30 -16
-0 -0 -0 -0 -0 -0 -0 -0 -0 -0 -0 -0 -0 -0 -0 -0 -0 -0 -0 -0 -0 -0 -0 -0 -0 -0 -0 -0 -0 -0 -0 -0 -0 -0 -0 -0 -0 -0 -0 -32 -0 -9 -11 -37 -18 -2 -2
-0 -0 -0 -0 -0 -0 -0 -0 -0 -0 -0 -0 -0 -0 -0 -0 -0 -0 -0 -0 -0 -0 -0 -0 -0 -0 -0 -0 -0 -0 -0 -0 -0 -0 -0 -0 -0 -0 -0 -3 -6 -0 -0 -1 -6 -0 -0
-0 -0 -0 -0 -0 -0 -0 -0 -0 -0 -0 -0 -0 -0 -0 -0 -0 -0 -0 -0 -0 -0 -0 -0 -0 -0 -0 -0 -0 -0 -0 -0 -0 -0 -0 -0 -5 -1 -0 -0 -12 -0 -0 -0 -0 -0 -0
-0 -0 -0 -0 -0 -0 -0 -0 -0 -0 -0 -0 -0 -0 -0 -0 -0 -0 -0 -0 -0 -0 -0 -0 -0 -0 -0 -0 -0 -0 -0 -0 -0 -0 -0 -0 -7 -0 -0 -0 -0 -0 -0 -0 -7 -0 -0
-0 -0 -0 -0 -0 -0 -0 -0 -0 -0 -0 -0 -0 -0 -0 -0 -0 -0 -0 -0 -0 -0 -0 -0 -0 -0 -0 -0 -0 -0 -0 -0 -0 -0 -0 -0 -0 -0 -0 -0 -6 -1 -0 -0 -0 -0 -0
-0 -0 -0 -0 -0 -0 -0 -0 -0 -0 -0 -0 -0 -0 -0 -0 -0 -0 -0 -0 -0 -0 -0 -0 -0 -0 -0 -0 -0 -0 -0 -0 -0 -0 -0 -0 -0 -0 -0 -1 -4 -0 -0 -0 -0 -0 -0
-0 -0 -0 -0 -0 -0 -0 -0 -0 -0 -0 -0 -0 -0 -0 -0 -0 -0 -0 -0 -0 -0 -0 -0 -0 -0 -0 -0 -0 -0 -0 -0 -0 -0 -0 -0 -0 -0 -0 -0 -0 -0 -1 -0 -0 -0 -0
-0 -0 -0 -0 -0 -0 -0 -0 -0 -0 -0 -0 -0 -0 -0 -0 -0 -0 -0 -0 -0 -0 -0 -0 -0 -0 -0 -0 -0 -0 -0 -0 -0 -0 -0 -0 -0 -0 -3 -0 -1 -0 -4 -0 -1 -0 -0
-0 -0 -0 -0 -0 -0 -0 -0 -0 -0 -0 -0 -0 -0 -0 -0 -0 -0 -0 -0 -0 -0 -0 -0 -0 -0 -0 -0 -0 -0 -0 -0 -0 -0 -0 -0 -0 -0 -2 -17 -0 -2 -0 -0 -0 -0 -8
-0 -0 -0 -0 -0 -0 -0 -0 -0 -0 -0 -0 -0 -0 -0 -0 -0 -0 -0 -0 -0 -0 -0 -0 -0 -0 -0 -0 -0 -0 -0 -0 -0 -0 -0 -0 -0 -0 -0 -3 -0 -0 -0 -0 -19 -0 -0
-0 -0 -0 -0 -0 -0 -0 -0 -0 -0 -0 -0 -0 -0 -1 -0 -0 -0 -0 -0 -0 -0 -0 -0 -0 -0 -0 -0 -0 -0 -0 -0 -0 -0 -0 -0 -0 -0 -4 -2 -0 -0 -0 -0 -0 -5 -6
-0 -0 -0 -0 -0 -0 -0 -0 -0 -0 -0 -0 -0 -0 -0 -0 -0 -0 -0 -0 -0 -0 -0 -0 -0 -0 -0 -0 -0 -0 -0 -0 -0 -0 -0 -0 -0 -0 -0 -3 -0 -0 -0 -0 -0 -0 -0
-0 -0 -0 -0 -0 -0 -0 -0 -0 -0 -0 -0 -0 -0 -0 -0 -0 -0 -0 -0 -0 -0 -0 -0 -0 -0 -0 -0 -0 -0 -0 -0 -0 -0 -0 -0 -0 -0 -0 -0 -0 -0 -0 -0 -0 -0 -0
-0 -0 -0 -0 -0 -0 -0 -0 -0 -0 -0 -0 -0 -0 -0 -0 -0 -0 -0 -0 -0 -0 -0 -0 -0 -0 -0 -0 -0 -0 -0 -0 -0 -0 -0 -0 -0 -0 -0 -0 -31 -0 -0 -0 -0 -0 -0
Wind_Speed
21 21 21 21 21 22 22 22 22 21 20 20 19 19 18 17 15 14 11 10 9 8 7 6 8 8 5 2 4 10 16 13 15 8 8 7 8 6 5 6 9 7 6 9 10 10 10
21 21 22 22 22 23 23 23 22 21 20 20 19 18 17 17 15 14 12 10 12 12 9 8 8 6 1 6 8 9 11 12 8 7 7 8 5 8 8 7 4 7 10 10 10 13 12
22 22 23 23 23 23 23 23 22 21 20 19 19 18 18 18 17 14 12 11 11 12 13 15 12 7 6 1 7 9 12 14 10 6 6 6 6 5 8 10 7 7 9 10 12 8 9
22 22 23 23 23 23 23 23 23 22 20 20 20 19 18 17 15 14 14 13 13 13 14 12 8 2 2 1 6 9 11 13 13 10 8 6 3 5 4 7 9 6 5 5 7 11 8
23 24 24 24 24 24 23 23 23 23 21 20 20 19 17 16 15 13 14 14 13 12 12 11 6 4 3 9 14 7 10 17 16 8 7 7 2 5 5 3 6 6 3 10 13 17 16
23 23 23 24 24 25 24 24 23 22 21 19 18 18 17 16 14 13 15 6 9 11 5 7 6 6 7 10 9 11 17 21 7 10 8 1 2 3 6 7 3 8 9 7 8 7 12
23 24 24 25 25 25 25 24 24 23 22 20 19 18 18 17 14 11 9 5 5 4 9 7 4 4 7 9 6 8 13 17 12 8 8 6 5 3 6 4 8 8 7 10 6 12 13
23 24 24 25 25 26 26 25 24 23 22 21 20 18 17 17 14 10 0 3 4 3 2 5 6 4 8 6 5 9 11 11 9 8 17 9 6 4 6 8 10 7 10 9 8 16 16
23 24 25 25 26 26 26 26 25 23 22 22 21 20 17 17 14 5 8 7 6 10 2 3 6 1 9 7 4 12 8 10 7 10 14 6 6 15 17 7 11 11 11 16 17 21 14
23 24 25 26 27 27 27 26 25 24 22 20 21 20 19 23 5 4 4 8 7 3 3 4 3 5 7 10 2 10 9 4 8 10 11 7 19 17 14 8 8 4 14 19 19 14 10
22 23 24 25 26 26 25 26 26 24 21 18 19 19 20 11 3 5 6 8 5 4 4 3 4 4 6 11 7 18 10 7 13 13 10 13 14 22 14 20 18 9 19 19 19 18 17
22 23 24 25 25 25 25 25 24 23 21 18 17 16 19 5 4 4 7 8 4 7 3 5 6 12 6 13 11 10 9 9 11 6 16 16 13 13 4 24 13 20 21 20 15 13 11
21 23 24 25 25 25 26 26 25 23 20 18 15 14 8 3 4 6 5 3 7 8 8 8 9 15 8 11 10 17 13 18 11 10 18 15 12 17 21 35 31 23 16 8 4 3 4
22 23 24 25 25 26 27 27 26 24 21 17 15 11 5 3 4 4 3 5 11 8 7 10 10 13 10 13 8 15 10 10 16 12 9 11 19 23 29 18 15 17 9 6 6 5 7
22 23 24 25 26 26 27 28 27 25 22 18 14 2 2 5 5 1 5 10 3 6 8 10 13 6 7 12 9 9 7 12 9 14 8 10 12 21 21 28 19 8 7 16 6 12 6
22 24 24 24 25 26 28 28 28 27 25 15 2 1 6 11 5 4 8 6 5 7 8 9 8 8 8 13 8 8 9 14 10 13 6 8 16 14 22 13 23 15 9 6 2 4 4
22 23 25 25 26 27 28 29 29 29 30 7 1 4 6 13 5 8 6 5 7 9 8 6 8 5 9 10 9 6 10 10 19 15 14 9 10 14 18 11 19 18 12 6 3 6 6
21 22 23 24 26 27 28 29 29 28 29 6 4 6 7 7 7 4 3 3 2 7 9 6 6 5 6 9 6 5 10 13 15 12 7 5 4 12 19 12 7 12 15 7 3 9 6
20 22 23 24 25 27 29 30 31 29 19 3 4 3 7 7 6 3 5 6 4 7 6 5 5 5 7 6 5 10 10 8 12 12 9 7 5 11 15 14 22 10 19 16 9 4 12
19 21 23 25 25 27 29 31 32 32 26 2 4 4 6 6 3 5 6 6 5 2 3 7 4 6 7 7 7 4 9 6 8 9 18 7 4 4 3 6 7 8 17 19 10 6 5
18 19 20 22 24 26 28 31 33 34 33 4 4 1 5 2 5 7 6 6 7 5 6 8 6 10 9 5 6 6 6 6 5 10 6 5 4 6 7 10 15 12 16 14 13 3 8
16 17 18 20 22 24 26 29 31 35 30 7 5 4 5 0 1 8 6 6 7 7 5 5 5 10 8 4 3 6 8 5 1 7 4 7 4 3 2 7 6 13 11 11 9 5 5
15 16 17 19 21 23 25 26 29 31 22 5 5 5 4 3 5 5 2 3 6 5 2 6 7 5 5 6 7 8 7 9 8 3 5 5 5 7 3 7 2 8 5 10 7 3 5
12 14 16 17 19 21 22 23 25 27 23 3 3 2 4 1 5 2 4 5 2 5 2 4 7 5 5 9 11 12 15 14 8 3 3 4 7 3 4 3 4 5 10 12 10 13 4
10 12 14 15 17 18 20 20 22 24 25 4 4 4 3 2 0 5 2 4 7 4 3 0 5 1 5 8 3 6 4 2 5 1 6 3 3 6 2 3 4 11 10 5 4 5 13
8 10 11 13 14 15 17 18 19 22 24 3 6 4 3 3 5 8 5 8 3 5 7 4 4 5 3 2 3 0 2 1 2 4 4 6 5 4 5 3 2 6 8 9 1 2 10
6 7 9 10 12 13 14 16 17 19 21 5 3 6 5 3 3 5 4 2 3 4 1 4 5 6 6 4 3 1 2 6 3 4 6 4 3 3 5 2 2 6 7 4 6 6 7
5 5 7 8 9 10 12 13 15 16 18 8 1 5 4 2 5 6 5 5 5 3 3 5 6 5 5 6 3 4 2 3 4 5 3 3 2 1 3 4 4 6 5 6 6 4 4
5 4 5 6 7 8 10 11 12 13 16 15 3 2 3 3 3 3 3 4 3 4 3 4 4 4 2 4 4 3 3 4 6 3 6 4 5 4 5 6 6 5 5 3 3 3 5
Wind_Direction
28 26 23 19 15 12 10 8 7 5 359 358 359 357 353 355 358 355 350 343 338 327 320 322 325 348 342 20 350 319 335 335 324 349 317 338 314 301 280 314 328 301 293 317 314 323 311
26 24 22 18 15 12 10 7 5 4 359 355 354 354 353 352 355 354 344 334 327 329 340 330 341 348 76 59 293 321 328 334 315 338 328 326 301 308 293 269 274 304 310 313 321 310 316
24 22 20 17 13 10 8 5 4 2 358 355 353 353 352 351 348 346 335 320 314 328 326 323 351 335 63 211 310 331 355 329 311 319 289 291 321 355 332 323 285 303 306 300 281 318 302
23 21 18 16 13 9 7 5 4 2 359 356 353 351 348 345 339 333 327 332 324 320 314 301 323 329 97 112 346 336 347 331 314 287 266 256 14 295 246 284 307 279 320 349 318 3 327
21 19 16 14 11 8 6 5 2 0 358 355 349 345 342 335 332 333 332 324 310 304 287 297 324 156 12 357 354 335 360 327 317 287 279 234 226 222 311 281 309 37 293 332 330 348 354
20 17 15 12 10 8 6 5 1 358 355 352 347 340 338 334 332 333 322 281 288 325 273 239 303 60 8 339 320 4 341 333 303 300 333 104 225 250 28 41 305 318 326 303 289 330 353
18 16 13 11 9 6 4 3 0 356 353 348 343 340 336 333 336 340 355 349 2 2 32 95 40 92 306 321 323 6 346 338 345 19 24 311 330 42 347 325 295 284 275 276 329 342 350
16 14 12 10 8 5 3 1 359 355 350 344 337 337 336 329 327 318 9 351 23 229 8 120 109 22 315 313 1 352 14 12 350 5 5 6 56 19 325 327 321 348 3 345 321 338 321
14 12 10 8 6 4 2 359 357 355 350 342 333 331 336 336 325 358 72 7 27 11 174 233 126 1 314 3 48 1 47 341 333 12 349 301 305 358 344 348 14 2 350 336 322 319 301
13 11 8 6 4 1 360 357 356 355 351 340 327 328 334 330 6 307 58 347 353 15 97 28 37 357 356 342 49 9 347 46 7 4 320 321 343 343 333 334 33 344 354 328 308 307 295
12 10 8 5 2 358 355 355 355 355 350 338 325 328 332 348 290 36 330 337 333 53 72 53 33 268 358 50 3 5 355 27 41 330 37 314 327 331 322 11 354 341 337 323 314 305 292
11 9 7 4 0 357 354 353 353 352 349 341 328 330 333 360 44 318 342 318 23 50 36 48 55 339 359 33 31 352 19 19 61 338 14 332 347 6 39 351 344 335 320 308 279 276 267
10 7 6 4 0 356 353 353 352 350 347 340 331 328 332 24 309 315 332 9 43 80 342 11 345 325 43 20 14 3 353 43 46 5 350 338 358 354 9 347 321 330 318 308 294 259 231
9 7 5 2 0 357 353 353 352 351 346 339 332 330 295 127 290 322 8 54 67 18 15 347 323 306 62 34 6 351 33 32 51 40 325 342 329 356 331 319 312 307 299 272 280 296 313
8 6 4 2 360 357 354 353 352 349 345 341 321 285 303 286 299 47 61 52 55 4 349 335 317 18 21 28 347 348 0 48 50 34 13 305 315 330 349 344 339 333 299 283 273 259 242
7 5 3 1 0 358 355 354 353 349 343 341 341 248 327 320 331 67 66 96 85 37 339 331 23 22 3 10 356 350 19 50 17 5 25 339 312 325 346 351 338 342 330 356 295 249 119
7 5 3 0 0 358 356 355 354 353 343 340 70 71 276 334 53 44 85 78 79 62 17 20 30 351 11 353 331 332 29 26 10 14 35 331 345 329 337 356 316 352 4 323 244 8 8
7 5 4 1 0 359 357 356 355 358 346 42 351 49 293 3 55 61 56 17 349 37 9 11 57 352 26 328 306 17 43 35 45 35 352 347 300 320 318 316 297 0 358 351 26 19 58
7 6 5 3 1 360 358 357 356 355 8 317 83 20 322 65 88 14 131 109 70 15 37 23 14 25 10 339 329 46 34 48 42 26 358 324 308 329 344 353 359 33 16 16 78 93 17
8 7 7 4 2 1 359 358 356 352 350 123 65 41 334 22 47 87 94 69 71 95 64 18 35 48 352 316 43 350 13 352 54 13 4 355 290 147 208 269 24 20 37 31 36 55 95
8 7 6 4 4 3 1 0 357 354 345 94 64 250 181 338 4 49 48 42 41 12 352 49 12 19 339 2 350 25 360 326 13 338 345 19 309 23 62 76 72 42 43 32 46 9 55
8 7 7 6 6 6 3 3 2 358 348 57 93 58 348 318 40 77 359 12 39 2 34 24 19 357 337 54 2 303 322 320 316 317 347 343 308 47 118 343 7 70 31 47 49 12 51
8 8 8 7 8 8 6 5 6 7 359 55 333 327 103 308 48 70 5 59 45 32 105 56 47 355 5 350 296 266 259 262 258 295 336 351 316 322 40 292 273 15 41 63 47 57 149
6 8 8 8 9 9 7 5 9 8 14 40 342 301 53 29 83 79 53 20 36 127 242 10 58 27 325 310 290 272 236 243 253 237 45 341 332 297 318 136 45 263 94 112 67 15 27
2 5 6 8 8 8 7 5 7 7 7 53 352 18 45 41 78 62 40 39 353 133 206 105 64 38 301 310 329 354 332 70 291 150 49 39 350 316 93 342 144 33 26 5 146 35 4
350 359 4 6 6 6 6 4 6 7 6 43 25 341 50 75 354 351 349 63 19 345 350 97 32 312 293 288 28 26 289 131 310 298 80 31 10 96 345 11 76 300 30 21 211 108 351
324 346 357 3 3 4 6 3 4 7 9 11 9 10 68 68 5 13 43 11 15 347 282 44 334 345 26 354 22 245 287 320 4 312 319 14 1 36 346 72 263 301 59 51 58 265 318
296 327 344 357 358 2 4 4 1 5 6 12 346 16 102 71 306 22 32 45 350 19 78 298 27 351 29 24 41 322 333 316 344 301 44 310 109 313 5 33 318 256 75 109 225 300 322
258 297 323 341 351 357 2 3 2 358 1 0 37 10 70 100 242 322 344 85 40 61 123 324 181 43 204 60 14 351 333 318 332 282 13 0 150 194 155 222 248 88 104 49 355 335 314